Location: Unspecified
(0.0000°N, 0.0000°E)
Time: 18:54:18
(UTC+00:00)

Explorer 11/Cluster Stage 4 - Pass Details

Date: 25 November 2019
Orbit: 467 x 1259 km, 28.8° (Epoch: 05 December)

Event Time Altitude Azimuth Distance (km) Brightness Sun altitude
Exits shadow 04:08:37 12° 234° (SW) 3,104 9.3 -22.9°
Maximum altitude 04:12:29 16° 204° (SSW) 2,756 9.3 -22.0°
Drops below altitude 10° 04:16:58 10° 170° (S) 3,101 10.0 -20.9°
Sets 04:21:04 0° 149° (SSE) 3,942 11.0 -20.0°
